Time,TemperatureF,DewpointF,PressureIn,WindDirection,WindDirectionDegrees,WindSpeedMPH,WindSpeedGustMPH,Humidity,HourlyPrecipIn,Conditions,Clouds,dailyrainin,SoftwareType,DateUTC
2013-04-29 00:04:00,58.0,49.4,29.70,SSE,158,1.0,7.0,73,0.00,,,0.00,Wunderground v.1.15,2013-04-29 05:04:00,
2013-04-29 00:10:00,58.1,49.5,29.70,SSW,205,2.0,7.0,73,0.00,,,0.00,Wunderground v.1.15,2013-04-29 05:10:00,
2013-04-29 00:16:00,58.0,49.4,29.70,SSE,152,2.0,7.0,73,0.00,,,0.00,Wunderground v.1.15,2013-04-29 05:16:00,
2013-04-29 00:22:00,57.6,49.4,29.70,SSE,162,3.0,7.0,74,0.00,,,0.00,Wunderground v.1.15,2013-04-29 05:22:00,
2013-04-29 00:28:00,57.4,49.5,29.70,SE,142,3.0,7.0,75,0.00,,,0.00,Wunderground v.1.15,2013-04-29 05:28:00,
2013-04-29 00:34:00,57.2,49.3,29.70,SSE,153,3.0,7.0,75,0.00,,,0.00,Wunderground v.1.15,2013-04-29 05:34:00,
2013-04-29 00:40:00,57.0,49.5,29.70,SSW,194,3.0,3.0,76,0.00,,,0.00,Wunderground v.1.15,2013-04-29 05:40:00,
2013-04-29 00:46:00,56.8,49.3,29.71,SW,214,3.0,7.0,76,0.00,,,0.00,Wunderground v.1.15,2013-04-29 05:46:00,
2013-04-29 00:52:00,56.6,49.5,29.71,SSE,160,3.0,7.0,77,0.00,,,0.00,Wunderground v.1.15,2013-04-29 05:52:00,
2013-04-29 00:58:00,56.5,49.7,29.71,SSE,152,3.0,7.0,78,0.00,,,0.00,Wunderground v.1.15,2013-04-29 05:58:00,
2013-04-29 01:04:00,56.3,49.5,29.71,South,177,3.0,7.0,78,0.00,,,0.00,Wunderground v.1.15,2013-04-29 06:04:00,
2013-04-29 01:10:00,56.1,49.7,29.71,SSE,148,2.0,7.0,79,0.00,,,0.00,Wunderground v.1.15,2013-04-29 06:10:00,
2013-04-29 01:16:00,56.0,49.6,29.71,SSE,158,2.0,7.0,79,0.00,,,0.00,Wunderground v.1.15,2013-04-29 06:16:00,
2013-04-29 01:22:00,55.9,49.5,29.71,SE,144,2.0,7.0,79,0.00,,,0.00,Wunderground v.1.15,2013-04-29 06:22:00,
2013-04-29 01:28:00,55.9,49.8,29.70,SE,146,2.0,7.0,80,0.00,,,0.00,Wunderground v.1.15,2013-04-29 06:28:00,
2013-04-29 01:34:00,55.7,49.6,29.71,SSE,163,2.0,7.0,80,0.00,,,0.00,Wunderground v.1.15,2013-04-29 06:34:00,
2013-04-29 01:40:00,55.7,49.6,29.71,SSE,168,2.0,7.0,80,0.00,,,0.00,Wunderground v.1.15,2013-04-29 06:40:00,
2013-04-29 01:46:00,55.5,49.8,29.70,SSE,155,2.0,7.0,81,0.00,,,0.00,Wunderground v.1.15,2013-04-29 06:46:00,
2013-04-29 01:52:00,55.3,49.6,29.70,South,180,2.0,7.0,81,0.00,,,0.00,Wunderground v.1.15,2013-04-29 06:52:00,
2013-04-29 01:58:00,55.2,49.8,29.70,SE,146,2.0,7.0,82,0.00,,,0.00,Wunderground v.1.15,2013-04-29 06:58:00,
2013-04-29 02:04:00,55.3,49.9,29.70,SSE,166,2.0,7.0,82,0.00,,,0.00,Wunderground v.1.15,2013-04-29 07:04:00,
2013-04-29 02:10:00,55.5,50.1,29.70,South,186,2.0,2.0,82,0.00,,,0.00,Wunderground v.1.15,2013-04-29 07:10:00,
2013-04-29 02:16:00,55.7,50.3,29.70,SSE,147,1.0,7.0,82,0.00,,,0.00,Wunderground v.1.15,2013-04-29 07:16:00,
2013-04-29 02:22:00,55.8,50.4,29.70,SSE,159,2.0,7.0,82,0.00,,,0.00,Wunderground v.1.15,2013-04-29 07:22:00,
2013-04-29 02:28:00,55.8,50.4,29.70,SSE,156,2.0,7.0,82,0.00,,,0.00,Wunderground v.1.15,2013-04-29 07:28:00,
2013-04-29 02:34:00,55.7,50.6,29.70,South,170,2.0,7.0,83,0.00,,,0.00,Wunderground v.1.15,2013-04-29 07:34:00,
2013-04-29 02:40:00,55.5,50.4,29.70,SSE,150,2.0,7.0,83,0.00,,,0.00,Wunderground v.1.15,2013-04-29 07:40:00,
2013-04-29 02:46:00,55.3,50.5,29.70,SSE,158,1.0,7.0,84,0.00,,,0.00,Wunderground v.1.15,2013-04-29 07:46:00,
2013-04-29 02:52:00,55.2,50.4,29.70,SSE,148,1.0,7.0,84,0.00,,,0.00,Wunderground v.1.15,2013-04-29 07:52:00,
2013-04-29 02:58:00,54.9,50.2,29.70,SSE,160,1.0,7.0,84,0.00,,,0.00,Wunderground v.1.15,2013-04-29 07:58:00,
2013-04-29 03:04:00,54.7,50.3,29.70,SSE,159,1.0,7.0,85,0.00,,,0.00,Wunderground v.1.15,2013-04-29 08:04:00,
2013-04-29 03:10:00,54.6,50.2,29.70,SE,138,1.0,1.0,85,0.00,,,0.00,Wunderground v.1.15,2013-04-29 08:10:00,
2013-04-29 03:16:00,54.4,50.3,29.70,SSE,153,1.0,7.0,86,0.00,,,0.00,Wunderground v.1.15,2013-04-29 08:16:00,
2013-04-29 03:22:00,54.3,50.2,29.70,SE,133,0.0,7.0,86,0.00,,,0.00,Wunderground v.1.15,2013-04-29 08:22:00,
2013-04-29 03:28:00,54.3,50.2,29.71,SE,139,0.0,7.0,86,0.00,,,0.00,Wunderground v.1.15,2013-04-29 08:28:00,
2013-04-29 03:34:00,54.3,50.2,29.71,SE,139,0.0,7.0,86,0.00,,,0.00,Wunderground v.1.15,2013-04-29 08:34:00,
2013-04-29 03:40:00,54.2,50.4,29.71,SE,138,0.0,7.0,87,0.00,,,0.00,Wunderground v.1.15,2013-04-29 08:40:00,
2013-04-29 03:46:00,54.2,50.4,29.71,SE,138,0.0,7.0,87,0.00,,,0.00,Wunderground v.1.15,2013-04-29 08:46:00,
2013-04-29 03:52:00,54.1,50.3,29.71,SSE,156,0.0,7.0,87,0.00,,,0.00,Wunderground v.1.15,2013-04-29 08:52:00,
2013-04-29 03:58:00,54.0,50.2,29.71,SE,146,0.0,7.0,87,0.00,,,0.00,Wunderground v.1.15,2013-04-29 08:58:00,
2013-04-29 04:04:00,54.0,50.2,29.71,SSE,155,0.0,7.0,87,0.00,,,0.00,Wunderground v.1.15,2013-04-29 09:04:00,
2013-04-29 04:10:00,53.9,50.1,29.72,SSE,155,0.0,7.0,87,0.00,,,0.00,Wunderground v.1.15,2013-04-29 09:10:00,
2013-04-29 04:16:00,53.8,50.3,29.72,SSE,155,0.0,7.0,88,0.00,,,0.00,Wunderground v.1.15,2013-04-29 09:16:00,
2013-04-29 04:22:00,53.8,50.3,29.72,SSE,155,0.0,7.0,88,0.00,,,0.00,Wunderground v.1.15,2013-04-29 09:22:00,
2013-04-29 04:28:00,53.9,50.4,29.73,SSE,155,0.0,7.0,88,0.00,,,0.00,Wunderground v.1.15,2013-04-29 09:28:00,
2013-04-29 04:34:00,54.2,50.7,29.73,SSE,155,0.0,7.0,88,0.00,,,0.00,Wunderground v.1.15,2013-04-29 09:34:00,
2013-04-29 04:40:00,54.3,50.8,29.73,South,176,0.0,7.0,88,0.00,,,0.00,Wunderground v.1.15,2013-04-29 09:40:00,
2013-04-29 04:46:00,54.4,50.6,29.73,SE,143,0.0,7.0,87,0.00,,,0.00,Wunderground v.1.15,2013-04-29 09:46:00,
2013-04-29 04:52:00,54.5,50.7,29.73,ENE,65,0.0,7.0,87,0.00,,,0.00,Wunderground v.1.15,2013-04-29 09:52:00,
2013-04-29 04:58:00,54.6,50.8,29.73,SSE,147,0.0,7.0,87,0.00,,,0.00,Wunderground v.1.15,2013-04-29 09:58:00,
2013-04-29 05:04:00,54.4,50.6,29.73,SE,146,0.0,7.0,87,0.00,,,0.00,Wunderground v.1.15,2013-04-29 10:04:00,
2013-04-29 05:10:00,54.4,50.6,29.72,SE,146,0.0,7.0,87,0.00,,,0.00,Wunderground v.1.15,2013-04-29 10:10:00,
2013-04-29 05:16:00,54.4,50.6,29.73,SE,146,0.0,7.0,87,0.00,,,0.00,Wunderground v.1.15,2013-04-29 10:16:00,
2013-04-29 05:22:00,54.3,50.8,29.72,SE,143,0.0,7.0,88,0.00,,,0.00,Wunderground v.1.15,2013-04-29 10:22:00,
2013-04-29 05:28:00,54.4,50.9,29.72,SE,135,0.0,7.0,88,0.00,,,0.00,Wunderground v.1.15,2013-04-29 10:28:00,
2013-04-29 05:34:00,54.3,50.8,29.72,SE,134,0.0,7.0,88,0.00,,,0.00,Wunderground v.1.15,2013-04-29 10:34:00,
2013-04-29 05:40:00,54.4,50.9,29.72,ESE,116,0.0,7.0,88,0.00,,,0.00,Wunderground v.1.15,2013-04-29 10:40:00,
2013-04-29 05:46:00,54.7,51.2,29.71,East,95,0.0,7.0,88,0.00,,,0.00,Wunderground v.1.15,2013-04-29 10:46:00,
2013-04-29 05:52:00,54.9,51.4,29.71,SE,135,1.0,7.0,88,0.00,,,0.00,Wunderground v.1.15,2013-04-29 10:52:00,
2013-04-29 05:58:00,54.9,51.4,29.72,SE,125,0.0,7.0,88,0.00,,,0.00,Wunderground v.1.15,2013-04-29 10:58:00,
2013-04-29 06:04:00,55.0,51.2,29.71,ESE,116,1.0,7.0,87,0.00,,,0.00,Wunderground v.1.15,2013-04-29 11:04:00,
2013-04-29 06:10:00,55.0,51.2,29.71,SE,125,1.0,7.0,87,0.00,,,0.00,Wunderground v.1.15,2013-04-29 11:10:00,
2013-04-29 06:16:00,54.9,51.1,29.71,SE,126,2.0,7.0,87,0.00,,,0.00,Wunderground v.1.15,2013-04-29 11:16:00,
2013-04-29 06:22:00,54.8,51.0,29.71,SE,145,2.0,7.0,87,0.00,,,0.00,Wunderground v.1.15,2013-04-29 11:22:00,
2013-04-29 06:28:00,54.9,51.4,29.71,SE,142,2.0,7.0,88,0.00,,,0.00,Wunderground v.1.15,2013-04-29 11:28:00,
2013-04-29 06:34:00,54.9,51.4,29.71,ESE,123,2.0,7.0,88,0.00,,,0.00,Wunderground v.1.15,2013-04-29 11:34:00,
2013-04-29 06:40:00,54.8,51.0,29.71,SE,128,2.0,7.0,87,0.00,,,0.00,Wunderground v.1.15,2013-04-29 11:40:00,
2013-04-29 06:46:00,54.8,51.0,29.70,SE,142,3.0,7.0,87,0.00,,,0.00,Wunderground v.1.15,2013-04-29 11:46:00,
2013-04-29 06:52:00,54.9,51.1,29.70,ESE,111,3.0,7.0,87,0.00,,,0.00,Wunderground v.1.15,2013-04-29 11:52:00,
2013-04-29 06:58:00,54.8,51.3,29.70,SE,131,3.0,7.0,88,0.00,,,0.00,Wunderground v.1.15,2013-04-29 11:58:00,
2013-04-29 07:04:00,54.8,51.3,29.71,SSE,149,3.0,7.0,88,0.00,,,0.00,Wunderground v.1.15,2013-04-29 12:04:00,
2013-04-29 07:10:00,54.8,51.3,29.71,SE,137,3.0,3.0,88,0.00,,,0.00,Wunderground v.1.15,2013-04-29 12:10:00,
2013-04-29 07:16:00,54.6,51.4,29.70,SSE,166,3.0,7.0,89,0.00,,,0.00,Wunderground v.1.15,2013-04-29 12:16:00,
2013-04-29 07:22:00,54.5,51.3,29.71,SE,124,4.0,7.0,89,0.00,,,0.00,Wunderground v.1.15,2013-04-29 12:22:00,
2013-04-29 07:28:00,54.5,51.3,29.72,ESE,103,5.0,7.0,89,0.00,,,0.00,Wunderground v.1.15,2013-04-29 12:28:00,
2013-04-29 07:34:00,54.6,51.4,29.72,South,172,4.0,7.0,89,0.00,,,0.00,Wunderground v.1.15,2013-04-29 12:34:00,
2013-04-29 07:40:00,54.6,51.4,29.72,SE,139,3.0,7.0,89,0.00,,,0.00,Wunderground v.1.15,2013-04-29 12:40:00,
2013-04-29 07:46:00,54.6,51.4,29.71,SE,130,3.0,7.0,89,0.00,,,0.00,Wunderground v.1.15,2013-04-29 12:46:00,
2013-04-29 07:52:00,54.5,51.3,29.70,SE,143,4.0,7.0,89,0.00,,,0.00,Wunderground v.1.15,2013-04-29 12:52:00,
2013-04-29 07:58:00,54.6,51.4,29.70,SE,129,5.0,7.0,89,0.00,,,0.00,Wunderground v.1.15,2013-04-29 12:58:00,
2013-04-29 08:04:00,54.6,51.4,29.69,ESE,122,5.0,7.0,89,0.00,,,0.00,Wunderground v.1.15,2013-04-29 13:04:00,
2013-04-29 08:10:00,54.5,51.3,29.70,SE,124,5.0,5.0,89,0.00,,,0.00,Wunderground v.1.15,2013-04-29 13:10:00,
2013-04-29 08:16:00,54.5,51.3,29.69,ESE,121,4.0,7.0,89,0.00,,,0.00,Wunderground v.1.15,2013-04-29 13:16:00,
2013-04-29 08:22:00,54.5,51.3,29.70,SE,139,4.0,7.0,89,0.00,,,0.00,Wunderground v.1.15,2013-04-29 13:22:00,
2013-04-29 08:28:00,54.5,51.6,29.72,SSE,166,3.0,7.0,90,0.00,,,0.00,Wunderground v.1.15,2013-04-29 13:28:00,
2013-04-29 08:34:00,54.4,51.5,29.72,SSE,147,2.0,7.0,90,0.46,,,0.02,Wunderground v.1.15,2013-04-29 13:34:00,
2013-04-29 08:40:00,53.9,51.6,29.69,SE,136,2.0,7.0,92,1.63,,,0.40,Wunderground v.1.15,2013-04-29 13:40:00,
2013-04-29 08:46:00,53.4,51.4,29.68,ESE,111,5.0,7.0,93,0.11,,,0.41,Wunderground v.1.15,2013-04-29 13:46:00,
2013-04-29 08:52:00,53.2,51.5,29.67,SE,138,6.0,7.0,94,0.10,,,0.42,Wunderground v.1.15,2013-04-29 13:52:00,
2013-04-29 08:58:00,53.2,51.5,29.69,SSW,198,5.0,9.0,94,0.05,,,0.42,Wunderground v.1.15,2013-04-29 13:58:00,
2013-04-29 09:04:00,53.1,51.4,29.70,South,170,3.0,7.0,94,0.00,,,0.42,Wunderground v.1.15,2013-04-29 14:04:00,
2013-04-29 09:10:00,53.1,51.4,29.68,ESE,110,2.0,7.0,94,0.00,,,0.42,Wunderground v.1.15,2013-04-29 14:10:00,
2013-04-29 09:16:00,53.3,51.6,29.67,ESE,123,4.0,7.0,94,0.00,,,0.42,Wunderground v.1.15,2013-04-29 14:16:00,
2013-04-29 09:22:00,53.4,51.7,29.68,SE,135,4.0,7.0,94,0.00,,,0.42,Wunderground v.1.15,2013-04-29 14:22:00,
2013-04-29 09:28:00,53.5,51.8,29.71,North,4,3.0,7.0,94,0.00,,,0.42,Wunderground v.1.15,2013-04-29 14:28:00,
2013-04-29 09:34:00,53.4,51.7,29.68,ESE,107,3.0,9.0,94,0.00,,,0.42,Wunderground v.1.15,2013-04-29 14:34:00,
2013-04-29 09:40:00,53.3,51.6,29.68,SSE,160,5.0,5.0,94,0.00,,,0.42,Wunderground v.1.15,2013-04-29 14:40:00,
2013-04-29 09:46:00,53.4,51.7,29.69,North,8,2.0,7.0,94,0.00,,,0.42,Wunderground v.1.15,2013-04-29 14:46:00,
2013-04-29 09:52:00,53.5,51.8,29.68,ESE,115,3.0,3.0,94,0.00,,,0.42,Wunderground v.1.15,2013-04-29 14:52:00,
2013-04-29 09:58:00,53.9,51.9,29.68,SE,129,3.0,7.0,93,0.00,,,0.42,Wunderground v.1.15,2013-04-29 14:58:00,
2013-04-29 10:04:00,54.5,52.5,29.68,SE,128,3.0,7.0,93,0.00,,,0.42,Wunderground v.1.15,2013-04-29 15:04:00,
2013-04-29 10:10:00,55.5,53.5,29.67,SE,130,4.0,7.0,93,0.00,,,0.42,Wunderground v.1.15,2013-04-29 15:10:00,
2013-04-29 10:16:00,55.9,53.3,29.68,SE,142,5.0,8.0,91,0.00,,,0.42,Wunderground v.1.15,2013-04-29 15:16:00,
2013-04-29 10:22:00,56.1,53.2,29.67,SSE,149,4.0,7.0,90,0.00,,,0.42,Wunderground v.1.15,2013-04-29 15:22:00,
2013-04-29 10:28:00,56.8,53.6,29.67,SSE,148,5.0,7.0,89,0.00,,,0.42,Wunderground v.1.15,2013-04-29 15:28:00,
2013-04-29 10:34:00,57.3,54.1,29.67,SE,131,5.0,7.0,89,0.00,,,0.42,Wunderground v.1.15,2013-04-29 15:34:00,
2013-04-29 10:40:00,57.7,53.9,29.67,ESE,121,5.0,5.0,87,0.00,,,0.42,Wunderground v.1.15,2013-04-29 15:40:00,
2013-04-29 10:46:00,58.2,54.3,29.67,ESE,122,6.0,7.0,87,0.00,,,0.42,Wunderground v.1.15,2013-04-29 15:46:00,
2013-04-29 10:52:00,58.8,54.6,29.67,SSE,147,5.0,7.0,86,0.00,,,0.42,Wunderground v.1.15,2013-04-29 15:52:00,
2013-04-29 10:58:00,59.3,54.1,29.68,SSW,198,4.0,7.0,83,0.00,,,0.42,Wunderground v.1.15,2013-04-29 15:58:00,
2013-04-29 11:04:00,60.0,55.2,29.68,SE,139,4.0,7.0,84,0.00,,,0.42,Wunderground v.1.15,2013-04-29 16:04:00,
2013-04-29 11:10:00,59.9,54.4,29.68,SE,131,4.0,7.0,82,0.00,,,0.42,Wunderground v.1.15,2013-04-29 16:10:00,
2013-04-29 11:16:00,60.5,54.6,29.68,SSE,156,4.0,7.0,81,0.00,,,0.42,Wunderground v.1.15,2013-04-29 16:16:00,
2013-04-29 11:22:00,61.1,54.9,29.68,SSE,165,2.0,7.0,80,0.00,,,0.42,Wunderground v.1.15,2013-04-29 16:22:00,
2013-04-29 11:28:00,61.6,55.4,29.68,South,184,3.0,7.0,80,0.00,,,0.42,Wunderground v.1.15,2013-04-29 16:28:00,
2013-04-29 11:34:00,62.1,55.2,29.67,SSE,155,4.0,7.0,78,0.00,,,0.42,Wunderground v.1.15,2013-04-29 16:34:00,
2013-04-29 11:40:00,62.6,55.3,29.67,SSE,158,4.0,4.0,77,0.00,,,0.42,Wunderground v.1.15,2013-04-29 16:40:00,
2013-04-29 11:46:00,62.8,55.8,29.67,SE,136,3.0,7.0,78,0.00,,,0.42,Wunderground v.1.15,2013-04-29 16:46:00,
2013-04-29 11:52:00,63.4,56.8,29.67,SE,139,4.0,7.0,79,0.00,,,0.42,Wunderground v.1.15,2013-04-29 16:52:00,
2013-04-29 11:58:00,63.5,55.4,29.67,SE,143,4.0,7.0,75,0.00,,,0.42,Wunderground v.1.15,2013-04-29 16:58:00,
2013-04-29 12:04:00,63.6,56.3,29.67,SSE,158,3.0,7.0,77,0.00,,,0.42,Wunderground v.1.15,2013-04-29 17:04:00,
2013-04-29 12:10:00,63.8,55.7,29.66,ESE,122,3.0,3.0,75,0.00,,,0.42,Wunderground v.1.15,2013-04-29 17:10:00,
2013-04-29 12:16:00,63.8,55.4,29.66,SSE,155,4.0,7.0,74,0.00,,,0.42,Wunderground v.1.15,2013-04-29 17:16:00,
2013-04-29 12:22:00,64.1,55.6,29.65,SE,135,5.0,7.0,74,0.00,,,0.42,Wunderground v.1.15,2013-04-29 17:22:00,
2013-04-29 12:28:00,64.3,55.8,29.65,ESE,123,4.0,7.0,74,0.00,,,0.42,Wunderground v.1.15,2013-04-29 17:28:00,
2013-04-29 12:34:00,64.7,55.8,29.65,SE,133,3.0,7.0,73,0.00,,,0.42,Wunderground v.1.15,2013-04-29 17:34:00,
2013-04-29 12:40:00,65.5,55.8,29.64,SE,135,3.0,3.0,71,0.00,,,0.42,Wunderground v.1.15,2013-04-29 17:40:00,
2013-04-29 12:46:00,65.7,56.0,29.64,SE,129,5.0,7.0,71,0.00,,,0.42,Wunderground v.1.15,2013-04-29 17:46:00,
2013-04-29 12:52:00,66.3,57.0,29.63,ESE,115,5.0,7.0,72,0.00,,,0.42,Wunderground v.1.15,2013-04-29 17:52:00,
2013-04-29 12:58:00,66.2,56.1,29.63,SE,129,5.0,7.0,70,0.00,,,0.42,Wunderground v.1.15,2013-04-29 17:58:00,
2013-04-29 13:04:00,66.0,55.1,29.62,ESE,108,5.0,7.0,68,0.00,,,0.42,Wunderground v.1.15,2013-04-29 18:04:00,
2013-04-29 13:10:00,65.9,56.2,29.63,South,184,5.0,7.0,71,0.00,,,0.42,Wunderground v.1.15,2013-04-29 18:10:00,
2013-04-29 13:16:00,66.0,55.5,29.63,SE,145,5.0,7.0,69,0.00,,,0.42,Wunderground v.1.15,2013-04-29 18:16:00,
2013-04-29 13:22:00,66.5,55.6,29.62,SE,129,5.0,7.0,68,0.00,,,0.42,Wunderground v.1.15,2013-04-29 18:22:00,
2013-04-29 13:28:00,67.3,55.5,29.62,ESE,120,5.0,9.0,66,0.00,,,0.42,Wunderground v.1.15,2013-04-29 18:28:00,
2013-04-29 13:34:00,67.2,55.9,29.61,SE,146,6.0,9.0,67,0.00,,,0.42,Wunderground v.1.15,2013-04-29 18:34:00,
2013-04-29 13:40:00,67.1,55.4,29.61,SE,131,5.0,7.0,66,0.00,,,0.42,Wunderground v.1.15,2013-04-29 18:40:00,
2013-04-29 13:46:00,67.4,55.6,29.60,SSE,152,5.0,7.0,66,0.00,,,0.42,Wunderground v.1.15,2013-04-29 18:46:00,
2013-04-29 13:52:00,67.8,55.2,29.60,South,181,5.0,6.0,64,0.00,,,0.42,Wunderground v.1.15,2013-04-29 18:52:00,
2013-04-29 13:58:00,67.8,55.6,29.61,SE,139,5.0,7.0,65,0.00,,,0.42,Wunderground v.1.15,2013-04-29 18:58:00,
2013-04-29 14:04:00,67.5,55.3,29.60,SE,146,4.0,7.0,65,0.00,,,0.42,Wunderground v.1.15,2013-04-29 19:04:00,
2013-04-29 14:10:00,67.9,55.7,29.60,SSE,152,4.0,7.0,65,0.00,,,0.42,Wunderground v.1.15,2013-04-29 19:10:00,
2013-04-29 14:16:00,68.4,56.6,29.60,ESE,112,5.0,7.0,66,0.00,,,0.42,Wunderground v.1.15,2013-04-29 19:16:00,
2013-04-29 14:22:00,69.0,55.9,29.60,ESE,110,5.0,7.0,63,0.00,,,0.42,Wunderground v.1.15,2013-04-29 19:22:00,
2013-04-29 14:28:00,69.0,56.3,29.60,SE,135,5.0,7.0,64,0.00,,,0.42,Wunderground v.1.15,2013-04-29 19:28:00,
2013-04-29 14:34:00,68.6,55.5,29.60,SE,131,6.0,7.0,63,0.00,,,0.42,Wunderground v.1.15,2013-04-29 19:34:00,
2013-04-29 14:40:00,68.1,55.0,29.60,ESE,122,6.0,6.0,63,0.00,,,0.42,Wunderground v.1.15,2013-04-29 19:40:00,
2013-04-29 14:46:00,68.6,56.4,29.60,ESE,115,5.0,7.0,65,0.00,,,0.42,Wunderground v.1.15,2013-04-29 19:46:00,
2013-04-29 14:52:00,69.0,55.9,29.59,SE,129,4.0,5.0,63,0.00,,,0.42,Wunderground v.1.15,2013-04-29 19:52:00,
2013-04-29 14:58:00,70.1,56.0,29.59,ESE,119,3.0,7.0,61,0.00,,,0.42,Wunderground v.1.15,2013-04-29 19:58:00,
2013-04-29 15:04:00,70.1,56.9,29.59,SE,129,4.0,7.0,63,0.00,,,0.42,Wunderground v.1.15,2013-04-29 20:04:00,
2013-04-29 15:10:00,70.5,56.9,29.59,ESE,113,3.0,7.0,62,0.00,,,0.42,Wunderground v.1.15,2013-04-29 20:10:00,
2013-04-29 15:16:00,71.5,56.9,29.59,ESE,113,2.0,7.0,60,0.00,,,0.42,Wunderground v.1.15,2013-04-29 20:16:00,
2013-04-29 15:22:00,72.5,57.8,29.58,SSW,201,4.0,7.0,60,0.00,,,0.42,Wunderground v.1.15,2013-04-29 20:22:00,
2013-04-29 15:28:00,73.4,57.2,29.58,South,169,4.0,7.0,57,0.00,,,0.42,Wunderground v.1.15,2013-04-29 20:28:00,
2013-04-29 15:34:00,73.9,57.2,29.58,SSE,152,3.0,7.0,56,0.00,,,0.42,Wunderground v.1.15,2013-04-29 20:34:00,
2013-04-29 15:40:00,74.2,57.5,29.58,SE,136,3.0,7.0,56,0.00,,,0.42,Wunderground v.1.15,2013-04-29 20:40:00,
2013-04-29 15:46:00,74.7,56.9,29.57,SSW,210,4.0,7.0,54,0.00,,,0.42,Wunderground v.1.15,2013-04-29 20:46:00,
2013-04-29 15:52:00,75.0,57.7,29.57,SSE,150,3.0,6.0,55,0.00,,,0.42,Wunderground v.1.15,2013-04-29 20:52:00,
2013-04-29 15:58:00,74.9,57.1,29.57,South,191,3.0,7.0,54,0.00,,,0.42,Wunderground v.1.15,2013-04-29 20:58:00,
2013-04-29 16:04:00,75.0,56.7,29.57,SSE,165,4.0,7.0,53,0.00,,,0.42,Wunderground v.1.15,2013-04-29 21:04:00,
2013-04-29 16:10:00,75.8,58.0,29.56,South,173,3.0,7.0,54,0.00,,,0.42,Wunderground v.1.15,2013-04-29 21:10:00,
2013-04-29 16:16:00,76.2,57.8,29.55,South,186,3.0,7.0,53,0.00,,,0.42,Wunderground v.1.15,2013-04-29 21:16:00,
2013-04-29 16:22:00,76.6,57.1,29.55,SSE,160,3.0,7.0,51,0.00,,,0.42,Wunderground v.1.15,2013-04-29 21:22:00,
2013-04-29 16:28:00,76.3,57.9,29.55,SE,125,3.0,7.0,53,0.00,,,0.42,Wunderground v.1.15,2013-04-29 21:28:00,
2013-04-29 16:34:00,76.2,57.3,29.55,South,173,3.0,7.0,52,0.00,,,0.42,Wunderground v.1.15,2013-04-29 21:34:00,
2013-04-29 16:40:00,76.6,57.7,29.55,SSE,165,3.0,3.0,52,0.00,,,0.42,Wunderground v.1.15,2013-04-29 21:40:00,
2013-04-29 16:46:00,77.2,58.2,29.54,South,177,2.0,7.0,52,0.00,,,0.42,Wunderground v.1.15,2013-04-29 21:46:00,
2013-04-29 16:52:00,77.8,58.2,29.54,SSW,198,2.0,7.0,51,0.00,,,0.42,Wunderground v.1.15,2013-04-29 21:52:00,
2013-04-29 16:58:00,77.0,57.5,29.54,SE,134,2.0,7.0,51,0.00,,,0.42,Wunderground v.1.15,2013-04-29 21:58:00,
2013-04-29 17:04:00,77.0,58.0,29.54,SSE,159,2.0,7.0,52,0.00,,,0.42,Wunderground v.1.15,2013-04-29 22:04:00,
2013-04-29 17:10:00,78.1,57.9,29.54,WSW,253,1.0,7.0,50,0.00,,,0.42,Wunderground v.1.15,2013-04-29 22:10:00,
2013-04-29 17:16:00,78.4,58.2,29.54,SE,137,1.0,7.0,50,0.00,,,0.42,Wunderground v.1.15,2013-04-29 22:16:00,
2013-04-29 17:22:00,78.3,58.1,29.53,SSE,155,2.0,3.0,50,0.00,,,0.42,Wunderground v.1.15,2013-04-29 22:22:00,
2013-04-29 17:28:00,77.9,57.8,29.54,ESE,119,2.0,7.0,50,0.00,,,0.42,Wunderground v.1.15,2013-04-29 22:28:00,
2013-04-29 17:34:00,78.1,57.9,29.53,East,98,2.0,7.0,50,0.00,,,0.42,Wunderground v.1.15,2013-04-29 22:34:00,
2013-04-29 17:40:00,78.6,57.8,29.53,SSE,167,3.0,7.0,49,0.00,,,0.42,Wunderground v.1.15,2013-04-29 22:40:00,
2013-04-29 17:46:00,79.2,57.8,29.53,SSW,212,3.0,7.0,48,0.00,,,0.42,Wunderground v.1.15,2013-04-29 22:46:00,
2013-04-29 17:52:00,79.4,56.8,29.54,SSE,164,3.0,7.0,46,0.00,,,0.42,Wunderground v.1.15,2013-04-29 22:52:00,
2013-04-29 17:58:00,79.4,57.4,29.54,South,171,2.0,7.0,47,0.00,,,0.42,Wunderground v.1.15,2013-04-29 22:58:00,
2013-04-29 18:04:00,79.2,57.2,29.53,South,174,2.0,7.0,47,0.00,,,0.42,Wunderground v.1.15,2013-04-29 23:04:00,
2013-04-29 18:10:00,79.4,57.4,29.53,SW,214,2.0,2.0,47,0.00,,,0.42,Wunderground v.1.15,2013-04-29 23:10:00,
2013-04-29 18:16:00,79.4,57.4,29.53,SSW,193,2.0,7.0,47,0.00,,,0.42,Wunderground v.1.15,2013-04-29 23:16:00,
2013-04-29 18:22:00,79.6,57.6,29.53,SSE,160,1.0,7.0,47,0.00,,,0.42,Wunderground v.1.15,2013-04-29 23:22:00,
2013-04-29 18:28:00,79.6,57.0,29.53,SSE,165,1.0,7.0,46,0.00,,,0.42,Wunderground v.1.15,2013-04-29 23:28:00,
2013-04-29 18:34:00,79.5,57.5,29.53,SSE,162,1.0,7.0,47,0.00,,,0.42,Wunderground v.1.15,2013-04-29 23:34:00,
2013-04-29 18:40:00,79.5,56.9,29.52,SSE,149,1.0,7.0,46,0.00,,,0.42,Wunderground v.1.15,2013-04-29 23:40:00,
2013-04-29 18:46:00,79.7,57.7,29.52,SSE,167,1.0,7.0,47,0.00,,,0.42,Wunderground v.1.15,2013-04-29 23:46:00,
2013-04-29 18:52:00,78.9,57.5,29.52,SSE,152,1.0,7.0,48,0.00,,,0.42,Wunderground v.1.15,2013-04-29 23:52:00,
2013-04-29 18:58:00,77.9,57.8,29.52,SE,142,1.0,7.0,50,0.00,,,0.42,Wunderground v.1.15,2013-04-29 23:58:00,
2013-04-29 19:04:00,77.9,57.8,29.52,SSE,165,1.0,7.0,50,0.00,,,0.42,Wunderground v.1.15,2013-04-30 00:04:00,
2013-04-29 19:10:00,77.4,58.4,29.52,SE,131,0.0,7.0,52,0.00,,,0.42,Wunderground v.1.15,2013-04-30 00:10:00,
2013-04-29 19:16:00,77.0,58.0,29.52,SSE,149,0.0,7.0,52,0.00,,,0.42,Wunderground v.1.15,2013-04-30 00:16:00,
2013-04-29 19:22:00,76.6,58.2,29.52,SE,136,0.0,7.0,53,0.00,,,0.42,Wunderground v.1.15,2013-04-30 00:22:00,
2013-04-29 19:28:00,76.4,58.5,29.52,SE,133,0.0,7.0,54,0.00,,,0.42,Wunderground v.1.15,2013-04-30 00:28:00,
2013-04-29 19:34:00,76.1,58.8,29.52,SE,128,0.0,7.0,55,0.00,,,0.42,Wunderground v.1.15,2013-04-30 00:34:00,
2013-04-29 19:40:00,75.9,58.6,29.52,SE,128,0.0,7.0,55,0.00,,,0.42,Wunderground v.1.15,2013-04-30 00:40:00,
2013-04-29 19:46:00,75.6,58.3,29.52,SE,129,0.0,7.0,55,0.00,,,0.42,Wunderground v.1.15,2013-04-30 00:46:00,
2013-04-29 19:52:00,75.1,58.3,29.52,SE,129,0.0,7.0,56,0.00,,,0.42,Wunderground v.1.15,2013-04-30 00:52:00,
2013-04-29 19:58:00,74.6,58.4,29.52,SE,128,0.0,7.0,57,0.00,,,0.42,Wunderground v.1.15,2013-04-30 00:58:00,
2013-04-29 20:04:00,74.2,58.5,29.52,SE,129,0.0,7.0,58,0.00,,,0.42,Wunderground v.1.15,2013-04-30 01:04:00,
2013-04-29 20:10:00,73.6,57.9,29.52,SE,136,1.0,7.0,58,0.00,,,0.42,Wunderground v.1.15,2013-04-30 01:10:00,
2013-04-29 20:16:00,73.1,57.9,29.52,SE,134,1.0,7.0,59,0.00,,,0.42,Wunderground v.1.15,2013-04-30 01:16:00,
2013-04-29 20:22:00,72.4,58.2,29.52,SE,134,0.0,7.0,61,0.00,,,0.42,Wunderground v.1.15,2013-04-30 01:22:00,
2013-04-29 20:28:00,71.7,58.4,29.52,SE,134,0.0,7.0,63,0.00,,,0.42,Wunderground v.1.15,2013-04-30 01:28:00,
2013-04-29 20:34:00,71.1,58.7,29.52,SE,134,0.0,7.0,65,0.00,,,0.42,Wunderground v.1.15,2013-04-30 01:34:00,
2013-04-29 20:40:00,70.6,58.7,29.52,SE,134,0.0,7.0,66,0.00,,,0.42,Wunderground v.1.15,2013-04-30 01:40:00,
2013-04-29 20:46:00,70.2,58.7,29.52,SE,134,0.0,7.0,67,0.00,,,0.42,Wunderground v.1.15,2013-04-30 01:46:00,
2013-04-29 20:52:00,69.7,58.7,29.52,SE,134,0.0,7.0,68,0.00,,,0.42,Wunderground v.1.15,2013-04-30 01:52:00,
2013-04-29 20:58:00,69.4,58.0,29.52,SE,129,0.0,7.0,67,0.00,,,0.42,Wunderground v.1.15,2013-04-30 01:58:00,
2013-04-29 21:04:00,69.7,57.8,29.51,SE,129,1.0,7.0,66,0.00,,,0.42,Wunderground v.1.15,2013-04-30 02:04:00,
2013-04-29 21:10:00,69.7,57.8,29.52,SE,128,1.0,1.0,66,0.00,,,0.42,Wunderground v.1.15,2013-04-30 02:10:00,
2013-04-29 21:16:00,69.4,57.5,29.52,SE,129,0.0,7.0,66,0.00,,,0.42,Wunderground v.1.15,2013-04-30 02:16:00,
2013-04-29 21:22:00,69.2,57.8,29.51,SE,129,1.0,7.0,67,0.00,,,0.42,Wunderground v.1.15,2013-04-30 02:22:00,
2013-04-29 21:28:00,69.2,57.4,29.52,SE,131,1.0,7.0,66,0.00,,,0.42,Wunderground v.1.15,2013-04-30 02:28:00,
2013-04-29 21:34:00,69.0,57.6,29.52,SE,131,0.0,7.0,67,0.00,,,0.42,Wunderground v.1.15,2013-04-30 02:34:00,
2013-04-29 21:40:00,68.7,57.3,29.52,SE,131,0.0,7.0,67,0.00,,,0.42,Wunderground v.1.15,2013-04-30 02:40:00,
2013-04-29 21:46:00,68.5,57.5,29.52,SE,131,0.0,7.0,68,0.00,,,0.42,Wunderground v.1.15,2013-04-30 02:46:00,
2013-04-29 21:52:00,68.2,57.2,29.52,SE,131,0.0,7.0,68,0.00,,,0.42,Wunderground v.1.15,2013-04-30 02:52:00,
2013-04-29 21:58:00,68.1,57.1,29.52,SE,124,1.0,7.0,68,0.00,,,0.42,Wunderground v.1.15,2013-04-30 02:58:00,
2013-04-29 22:04:00,68.2,57.2,29.51,SE,135,1.0,7.0,68,0.00,,,0.42,Wunderground v.1.15,2013-04-30 03:04:00,
2013-04-29 22:10:00,68.2,57.2,29.51,SE,129,1.0,7.0,68,0.00,,,0.42,Wunderground v.1.15,2013-04-30 03:10:00,
2013-04-29 22:16:00,68.0,57.0,29.51,SE,134,1.0,7.0,68,0.00,,,0.42,Wunderground v.1.15,2013-04-30 03:16:00,
2013-04-29 22:22:00,67.8,57.3,29.52,SE,132,1.0,7.0,69,0.00,,,0.42,Wunderground v.1.15,2013-04-30 03:22:00,
2013-04-29 22:28:00,67.9,57.4,29.52,SE,128,1.0,7.0,69,0.00,,,0.42,Wunderground v.1.15,2013-04-30 03:28:00,
2013-04-29 22:34:00,67.8,57.3,29.52,SE,128,1.0,7.0,69,0.00,,,0.42,Wunderground v.1.15,2013-04-30 03:34:00,
2013-04-29 22:40:00,67.6,57.1,29.52,SE,128,0.0,7.0,69,0.00,,,0.42,Wunderground v.1.15,2013-04-30 03:40:00,
2013-04-29 22:46:00,67.2,57.1,29.52,SE,129,0.0,7.0,70,0.00,,,0.42,Wunderground v.1.15,2013-04-30 03:46:00,
2013-04-29 22:52:00,67.3,57.2,29.51,East,90,1.0,7.0,70,0.00,,,0.42,Wunderground v.1.15,2013-04-30 03:52:00,
2013-04-29 22:58:00,66.9,57.2,29.51,ESE,117,0.0,7.0,71,0.00,,,0.42,Wunderground v.1.15,2013-04-30 03:58:00,
2013-04-29 23:02:00,66.8,57.1,29.51,ESE,120,1.0,7.0,71,0.00,,,0.42,Wunderground v.1.15,2013-04-30 04:02:00,
2013-04-29 23:04:00,66.9,57.2,29.51,SE,133,1.0,7.0,71,0.00,,,0.42,Wunderground v.1.15,2013-04-30 04:04:00,
2013-04-29 23:08:00,66.7,57.4,29.51,ESE,117,1.0,7.0,72,0.00,,,0.42,Wunderground v.1.15,2013-04-30 04:08:00,
2013-04-29 23:12:00,66.5,57.2,29.51,ESE,123,1.0,7.0,72,0.00,,,0.42,Wunderground v.1.15,2013-04-30 04:12:00,
2013-04-29 23:18:00,66.3,57.4,29.50,SE,129,1.0,7.0,73,0.00,,,0.42,Wunderground v.1.15,2013-04-30 04:18:00,
2013-04-29 23:24:00,65.9,57.0,29.50,ESE,119,1.0,7.0,73,0.00,,,0.42,Wunderground v.1.15,2013-04-30 04:24:00,
2013-04-29 23:30:00,65.8,57.3,29.50,SE,130,1.0,7.0,74,0.00,,,0.42,Wunderground v.1.15,2013-04-30 04:30:00,
2013-04-29 23:36:00,65.7,57.2,29.49,SE,146,2.0,7.0,74,0.00,,,0.42,Wunderground v.1.15,2013-04-30 04:36:00,
2013-04-29 23:42:00,65.8,57.3,29.49,SE,138,2.0,7.0,74,0.00,,,0.42,Wunderground v.1.15,2013-04-30 04:42:00,
2013-04-29 23:48:00,65.9,57.4,29.49,SSE,158,2.0,7.0,74,0.00,,,0.42,Wunderground v.1.15,2013-04-30 04:48:00,
2013-04-29 23:54:00,65.8,57.3,29.49,SE,138,2.0,7.0,74,0.00,,,0.42,Wunderground v.1.15,2013-04-30 04:54:00,